This is the latest recevied weather packets stored in our database for station/object DL2GPS-3. If no packets are shown the sender has not sent any weather packets the latest 10 day(s).
| Time | Temp. | Humidity | Pressure | Rain* | Wind** | Luminosity | Snow |
|---|---|---|---|---|---|---|---|
| 1777550040 | 14.44° C | 29% | 1024.2 hPa | - | - | - | - |
| 1777549435 | 14.44° C | 28% | 1024.1 hPa | - | - | - | - |
| 1777548829 | 14.44° C | 29% | 1024.4 hPa | - | - | - | - |
| 1777548224 | 14.44° C | 30% | 1024.2 hPa | - | - | - | - |
| 1777547619 | 13.89° C | 31% | 1024.3 hPa | - | - | - | - |
| 1777547014 | 13.89° C | 31% | 1024.3 hPa | - | - | - | - |
| 1777546409 | 13.89° C | 30% | 1024.3 hPa | - | - | - | - |
| 1777545804 | 13.33° C | 31% | 1024.1 hPa | - | - | - | - |
| 1777545199 | 13.89° C | 30% | 1024.1 hPa | - | - | - | - |
| 1777544593 | 12.78° C | 30% | 1024.1 hPa | - | - | - | - |
| 1777543989 | 12.22° C | 32% | 1024.1 hPa | - | - | - | - |
| 1777543385 | 12.22° C | 32% | 1024.3 hPa | - | - | - | - |
| 1777542781 | 11.67° C | 33% | 1024.4 hPa | - | - | - | - |
| 1777542175 | 11.67° C | 35% | 1024.2 hPa | - | - | - | - |
| 1777541570 | 11.67° C | 37% | 1024.1 hPa | - | - | - | - |
| 1777540965 | 11.11° C | 37% | 1024.3 hPa | - | - | - | - |
| 1777540361 | 10.56° C | 38% | 1024.3 hPa | - | - | - | - |
| 1777539755 | 11.11° C | 38% | 1024.2 hPa | - | - | - | - |
| 1777539151 | 10° C | 38% | 1024.3 hPa | - | - | - | - |
| 1777538546 | 10° C | 39% | 1024.1 hPa | - | - | - | - |
| 1777537941 | 9.44° C | 39% | 1024.1 hPa | - | - | - | - |
| 1777537336 | 9.44° C | 40% | 1024 hPa | - | - | - | - |
| 1777536732 | 8.89° C | 40% | 1024 hPa | - | - | - | - |
| 1777536128 | 8.89° C | 40% | 1023.9 hPa | - | - | - | - |
| 1777535523 | 8.89° C | 40% | 1023.8 hPa | - | - | - | - |
* Rain since midnight (hover to see other rain measurements)
** Current wind speed in m/s (hover to see current wind gust speed)